TimeCST,TemperatureF,Dew PointF,Humidity,Sea Level PressureIn,VisibilityMPH,Wind Direction,Wind SpeedMPH,Gust SpeedMPH,PrecipitationIn,Events,Conditions,WindDirDegrees,DateUTC
12:07 AM,59.0,51.8,77,30.10,10.0,ENE,9.2,-,0.00,Rain-Thunderstorm,Light Rain,60,2012-11-04 05:07:00
12:22 AM,59.0,51.8,77,30.12,10.0,ENE,4.6,-,0.00,Rain,Light Rain,60,2012-11-04 05:22:00
12:53 AM,60.1,52.0,75,30.13,10.0,North,5.8,-,0.00,,Mostly Cloudy,10,2012-11-04 05:53:00
1:53 AM,57.0,48.9,74,30.12,10.0,NNE,9.2,-,0.00,Rain,Light Rain,20,2012-11-04 06:53:00
1:25 AM,55.4,48.2,77,30.15,10.0,Variable,6.9,-,0.00,Thunderstorm,Overcast,0,2012-11-04 07:25:00
1:35 AM,55.4,48.2,77,30.17,7.0,NW,10.4,23.0,0.02,Rain-Thunderstorm,Light Thunderstorms and Rain,310,2012-11-04 07:35:00
1:53 AM,54.0,50.0,86,30.12,4.0,NE,8.1,-,0.20,Rain-Thunderstorm,Thunderstorms and Rain,40,2012-11-04 07:53:00
2:08 AM,53.6,50.0,88,30.15,9.0,NNW,10.4,-,0.02,Rain,Light Rain,330,2012-11-04 08:08:00
2:53 AM,53.1,51.1,93,30.12,9.0,NNE,8.1,-,0.04,Rain,Rain,30,2012-11-04 08:53:00
3:53 AM,53.1,48.0,83,30.13,10.0,NE,6.9,-,0.04,,Scattered Clouds,40,2012-11-04 09:53:00
4:53 AM,51.1,44.1,77,30.16,10.0,North,6.9,-,N/A,,Scattered Clouds,350,2012-11-04 10:53:00
5:53 AM,50.0,44.1,80,30.15,10.0,NNE,8.1,-,N/A,,Clear,30,2012-11-04 11:53:00
6:53 AM,48.9,42.1,77,30.17,10.0,NNE,8.1,-,N/A,,Clear,30,2012-11-04 12:53:00
7:53 AM,48.9,42.1,77,30.21,10.0,NE,4.6,-,N/A,,Clear,40,2012-11-04 13:53:00
8:53 AM,50.0,42.1,74,30.22,10.0,NE,8.1,-,N/A,,Clear,50,2012-11-04 14:53:00
9:53 AM,52.0,43.0,71,30.23,10.0,NE,6.9,-,N/A,,Clear,50,2012-11-04 15:53:00
10:53 AM,52.0,43.0,71,30.22,10.0,NNE,5.8,-,N/A,,Clear,20,2012-11-04 16:53:00
11:53 AM,55.9,45.0,67,30.20,10.0,NNE,5.8,-,N/A,,Clear,20,2012-11-04 17:53:00
12:53 PM,57.9,44.1,60,30.17,10.0,NNE,6.9,-,N/A,,Clear,20,2012-11-04 18:53:00
1:53 PM,59.0,44.1,58,30.14,10.0,ENE,8.1,-,N/A,,Clear,60,2012-11-04 19:53:00
2:53 PM,60.1,43.0,53,30.13,10.0,NE,4.6,-,N/A,,Clear,50,2012-11-04 20:53:00
3:53 PM,60.1,44.1,55,30.13,10.0,NE,5.8,-,N/A,,Clear,50,2012-11-04 21:53:00
4:53 PM,57.0,45.0,64,30.13,10.0,NE,3.5,-,N/A,,Clear,50,2012-11-04 22:53:00
5:53 PM,53.1,46.9,80,30.13,10.0,Calm,Calm,-,N/A,,Clear,0,2012-11-04 23:53:00
6:53 PM,53.1,45.0,74,30.15,10.0,Calm,Calm,-,N/A,,Clear,0,2012-11-05 00:53:00
7:53 PM,48.9,46.0,90,30.16,10.0,Calm,Calm,-,N/A,,Clear,0,2012-11-05 01:53:00
8:53 PM,46.0,44.1,93,30.17,7.0,Calm,Calm,-,N/A,,Clear,0,2012-11-05 02:53:00
9:53 PM,46.0,44.1,93,30.15,7.0,Calm,Calm,-,N/A,,Scattered Clouds,0,2012-11-05 03:53:00
10:53 PM,44.6,42.8,93,30.15,10.0,Calm,Calm,-,N/A,,Partly Cloudy,0,2012-11-05 04:53:00